Hourly Weather Bolshoe Agishevo

Today, 17 June, Thursday

Time Temperature Precipitation Wind Pressure Humidity
00:00 +16°C° 0 mm 3 mps 748 mmHg 90%
01:00 +14°C° 0 mm 3 mps 749 mmHg 89%
02:00 +13°C° 0 mm 3 mps 749 mmHg 88%
03:00 +12°C° 0 mm 3 mps 750 mmHg 87%
04:00 +13°C° 0 mm 3 mps 750 mmHg 86%
05:00 +13°C° 0 mm 3 mps 750 mmHg 85%
06:00 +13°C° 0 mm 3 mps 751 mmHg 84%
07:00 +16°C° 0 mm 3 mps 751 mmHg 76%
08:00 +18°C° 0 mm 3 mps 751 mmHg 67%
09:00 +20°C° 0 mm 3 mps 752 mmHg 59%
10:00 +21°C° 0 mm 3 mps 752 mmHg 56%
11:00 +22°C° 0 mm 4 mps 752 mmHg 53%
12:00 +23°C° 0 mm 4 mps 753 mmHg 50%
13:00 +23°C° 0 mm 4 mps 753 mmHg 50%
14:00 +23°C° 0 mm 4 mps 753 mmHg 50%
15:00 +23°C° 0 mm 4 mps 753 mmHg 50%
16:00 +23°C° 0 mm 4 mps 753 mmHg 55%
17:00 +22°C° 0 mm 4 mps 753 mmHg 59%
18:00 +22°C° 0 mm 3 mps 753 mmHg 64%
19:00 +20°C° 0 mm 3 mps 753 mmHg 67%
20:00 +18°C° 0 mm 3 mps 754 mmHg 71%
21:00 +16°C° 0 mm 3 mps 754 mmHg 75%
22:00 +14°C° 0 mm 3 mps 754 mmHg 75%
23:00 +14°C° 0 mm 3 mps 755 mmHg 75%

Tomorrow, 18 June, Friday

Time Temperature Precipitation Wind Pressure Humidity
00:00 +14°C° 0 mm 2 mps 755 mmHg 76%
01:00 +14°C° 0 mm 2 mps 755 mmHg 78%
02:00 +13°C° 0 mm 2 mps 755 mmHg 80%
03:00 +13°C° 0 mm 2 mps 755 mmHg 82%
04:00 +14°C° 0 mm 2 mps 756 mmHg 81%
05:00 +14°C° 0 mm 2 mps 756 mmHg 80%
06:00 +15°C° 0 mm 2 mps 756 mmHg 80%
07:00 +17°C° 0 mm 2 mps 757 mmHg 73%
08:00 +19°C° 0 mm 2 mps 757 mmHg 67%
09:00 +20°C° 0 mm 2 mps 757 mmHg 61%
10:00 +21°C° 0 mm 2 mps 757 mmHg 57%
11:00 +23°C° 0 mm 2 mps 757 mmHg 54%
12:00 +24°C° 0 mm 2 mps 757 mmHg 51%
13:00 +24°C° 0 mm 2 mps 757 mmHg 51%
14:00 +24°C° 0 mm 2 mps 757 mmHg 51%
15:00 +25°C° 0 mm 2 mps 756 mmHg 52%
16:00 +24°C° 0 mm 2 mps 756 mmHg 56%
17:00 +24°C° 0 mm 1 mps 756 mmHg 61%
18:00 +24°C° 0 mm 1 mps 756 mmHg 65%
19:00 +22°C° 0 mm 1 mps 756 mmHg 69%
20:00 +20°C° 0 mm 1 mps 756 mmHg 74%
21:00 +19°C° 0 mm 1 mps 756 mmHg 78%
22:00 +18°C° 0 mm 1 mps 756 mmHg 81%
23:00 +16°C° 0 mm 1 mps 757 mmHg 84%

Day after tomorrow, 19 June, Saturday

Time Temperature Precipitation Wind Pressure Humidity
00:00 +15°C° 0 mm 1 mps 757 mmHg 86%
01:00 +15°C° 0 mm 1 mps 757 mmHg 87%
02:00 +15°C° 0 mm 1 mps 757 mmHg 89%
03:00 +14°C° 0 mm 1 mps 757 mmHg 90%
04:00 +15°C° 0 mm 1 mps 757 mmHg 87%
05:00 +16°C° 0 mm 1 mps 757 mmHg 85%
06:00 +18°C° 0 mm 1 mps 757 mmHg 83%
07:00 +20°C° 0 mm 1 mps 757 mmHg 77%
08:00 +21°C° 0 mm 1 mps 757 mmHg 72%
09:00 +23°C° 0 mm 1 mps 757 mmHg 67%
10:00 +24°C° 0 mm 1 mps 757 mmHg 64%
11:00 +24°C° 0 mm 1 mps 757 mmHg 61%
12:00 +25°C° 0 mm 1 mps 757 mmHg 58%
13:00 +26°C° 0 mm 1 mps 757 mmHg 57%
14:00 +26°C° 0 mm 1 mps 756 mmHg 56%
15:00 +26°C° 0 mm 2 mps 756 mmHg 55%
16:00 +26°C° 0 mm 1 mps 756 mmHg 59%
17:00 +26°C° 0 mm 1 mps 755 mmHg 63%
18:00 +25°C° 0 mm 1 mps 755 mmHg 66%
19:00 +24°C° 0 mm 1 mps 755 mmHg 72%
20:00 +22°C° 0 mm 1 mps 755 mmHg 77%
21:00 +20°C° 0 mm 1 mps 755 mmHg 82%
22:00 +19°C° 0 mm 1 mps 755 mmHg 84%
23:00 +18°C° 0 mm 1 mps 755 mmHg 85%

20 June, Sunday

Time Temperature Precipitation Wind Pressure Humidity
00:00 +18°C° 0 mm 1 mps 755 mmHg 87%
01:00 +16°C° 0 mm 1 mps 756 mmHg 87%
02:00 +16°C° 0 mm 1 mps 756 mmHg 88%
03:00 +16°C° 0 mm 1 mps 756 mmHg 88%
04:00 +16°C° 0 mm 1 mps 756 mmHg 86%
05:00 +16°C° 0 mm 0 mps 756 mmHg 83%
06:00 +17°C° 0 mm 0 mps 756 mmHg 81%
07:00 +19°C° 0 mm 0 mps 756 mmHg 75%
08:00 +22°C° 0 mm 1 mps 756 mmHg 70%
09:00 +24°C° 0 mm 1 mps 756 mmHg 65%
10:00 +25°C° 0 mm 1 mps 756 mmHg 61%
11:00 +26°C° 0 mm 1 mps 755 mmHg 57%
12:00 +27°C° 0 mm 1 mps 755 mmHg 54%
13:00 +27°C° 0 mm 1 mps 755 mmHg 52%
14:00 +28°C° 0 mm 1 mps 755 mmHg 51%
15:00 +28°C° 0 mm 1 mps 754 mmHg 50%
16:00 +28°C° 0 mm 1 mps 754 mmHg 55%
17:00 +28°C° 0 mm 1 mps 754 mmHg 59%
18:00 +27°C° 0 mm 1 mps 754 mmHg 63%
19:00 +25°C° 0 mm 1 mps 754 mmHg 68%
20:00 +23°C° 0 mm 1 mps 754 mmHg 74%
21:00 +21°C° 0 mm 1 mps 754 mmHg 79%
22:00 +21°C° 0 mm 1 mps 753 mmHg 81%
23:00 +20°C° 0 mm 1 mps 753 mmHg 83%

21 June, Monday

Time Temperature Precipitation Wind Pressure Humidity
00:00 +19°C° 0 mm 1 mps 753 mmHg 84%
01:00 +17°C° 0 mm 0 mps 753 mmHg 85%
02:00 +17°C° 0 mm 0 mps 753 mmHg 86%
03:00 +17°C° 0 mm 0 mps 753 mmHg 86%
04:00 +17°C° 0 mm 0 mps 753 mmHg 84%
05:00 +18°C° 0 mm 0 mps 754 mmHg 82%
06:00 +19°C° 0 mm 0 mps 754 mmHg 80%
07:00 +21°C° 0 mm 0 mps 754 mmHg 75%
08:00 +24°C° 0 mm 1 mps 754 mmHg 70%
09:00 +26°C° 0 mm 1 mps 754 mmHg 65%
10:00 +27°C° 0 mm 1 mps 754 mmHg 61%
11:00 +28°C° 0 mm 1 mps 753 mmHg 58%
12:00 +29°C° 0 mm 1 mps 753 mmHg 54%
13:00 +29°C° 0 mm 1 mps 753 mmHg 52%
14:00 +30°C° 0 mm 1 mps 753 mmHg 51%
15:00 +30°C° 0 mm 1 mps 753 mmHg 50%
16:00 +30°C° 0 mm 1 mps 753 mmHg 54%
17:00 +29°C° 0 mm 1 mps 752 mmHg 59%
18:00 +27°C° 0 mm 0 mps 752 mmHg 63%
19:00 +25°C° 0 mm 0 mps 752 mmHg 68%
20:00 +23°C° 0 mm 0 mps 752 mmHg 72%
21:00 +21°C° 0 mm 0 mps 752 mmHg 77%
22:00 +21°C° 0 mm 0 mps 752 mmHg 79%
23:00 +20°C° 0 mm 0 mps 752 mmHg 80%

22 June, Tuesday

Time Temperature Precipitation Wind Pressure Humidity
00:00 +19°C° 0 mm 0 mps 752 mmHg 82%
01:00 +19°C° 0 mm 0 mps 752 mmHg 83%
02:00 +19°C° 0 mm 0 mps 752 mmHg 84%
03:00 +18°C° 0 mm 0 mps 752 mmHg 85%
04:00 +19°C° 0 mm 0 mps 753 mmHg 83%
05:00 +20°C° 0 mm 0 mps 753 mmHg 81%
06:00 +21°C° 0 mm 0 mps 753 mmHg 79%
07:00 +22°C° 0 mm 0 mps 753 mmHg 75%
08:00 +24°C° 0 mm 0 mps 753 mmHg 70%
09:00 +25°C° 0 mm 0 mps 753 mmHg 65%
10:00 +26°C° 0 mm 0 mps 753 mmHg 61%
11:00 +27°C° 0 mm 0 mps 753 mmHg 58%
12:00 +30°C° 0 mm 1 mps 753 mmHg 54%
13:00 +31°C° 0 mm 1 mps 753 mmHg 53%
14:00 +31°C° 0 mm 1 mps 753 mmHg 52%
15:00 +31°C° 0 mm 1 mps 753 mmHg 51%
16:00 +31°C° 0 mm 1 mps 752 mmHg 55%
17:00 +31°C° 0 mm 1 mps 752 mmHg 59%
18:00 +30°C° 0 mm 1 mps 752 mmHg 63%
19:00 +28°C° 0.2 mm 2 mps 752 mmHg 70%
20:00 +26°C° 0.2 mm 2 mps 752 mmHg 77%
21:00 +24°C° 0.2 mm 3 mps 753 mmHg 83%
22:00 +23°C° 0.3 mm 2 mps 752 mmHg 85%
23:00 +21°C° 0.3 mm 2 mps 752 mmHg 86%
Show more